This is the latest recevied weather packets stored in our database for station/object SP1BMW-13. If no packets are shown the sender has not sent any weather packets the latest 1 day(s).
| Time | Temp. | Humidity | Pressure | Rain* | Wind** | Luminosity | Snow |
|---|---|---|---|---|---|---|---|
| 1778094293 | 7.78° C | 87% | 1008.1 hPa | 0 mm | 0.89 m/s, 72° | 0 W/m² | - |
| 1778094232 | 7.78° C | 87% | 1008.2 hPa | 0 mm | 1.79 m/s, 46° | 0 W/m² | - |
| 1778094113 | 7.78° C | 88% | 1008.2 hPa | 0 mm | 0 m/s | 0 W/m² | - |
| 1778094053 | 7.78° C | 88% | 1008 hPa | 0 mm | 0.45 m/s, 350° | 0 W/m² | - |
| 1778093873 | 7.78° C | 87% | 1008 hPa | 0 mm | 0.89 m/s, 42° | 0 W/m² | - |
| 1778093633 | 7.78° C | 88% | 1007.9 hPa | 0 mm | 1.34 m/s, 31° | 0 W/m² | - |
| 1778093512 | 7.78° C | 88% | 1007.7 hPa | 0 mm | 0.89 m/s, 68° | 0 W/m² | - |
| 1778093453 | 7.78° C | 88% | 1008 hPa | 0 mm | 0.89 m/s, 30° | 0 W/m² | - |
| 1778092972 | 7.78° C | 88% | 1007.9 hPa | 0 mm | 0.89 m/s, 4° | 1 W/m² | - |
| 1778092913 | 8.33° C | 88% | 1007.8 hPa | 0 mm | 0.89 m/s, 343° | 1 W/m² | - |
| 1778092853 | 8.33° C | 88% | 1007.9 hPa | 0 mm | 1.34 m/s, 319° | 1 W/m² | - |
| 1778092672 | 8.33° C | 88% | 1008 hPa | 0 mm | 0.89 m/s, 14° | 1 W/m² | - |
| 1778092192 | 8.33° C | 88% | 1007.9 hPa | 0 mm | 0.89 m/s, 55° | 3 W/m² | - |
| 1778092072 | 8.33° C | 88% | 1007.7 hPa | 0 mm | 1.79 m/s, 22° | 3 W/m² | - |
| 1778091532 | 8.89° C | 89% | 1007.5 hPa | 0 mm | 0.89 m/s, 33° | 4 W/m² | - |
| 1778091292 | 8.89° C | 89% | 1007.4 hPa | 0 mm | 0 m/s | 6 W/m² | - |
| 1778091233 | 8.89° C | 89% | 1007.6 hPa | 0 mm | 0.89 m/s, 309° | 6 W/m² | - |
| 1778091112 | 8.89° C | 89% | 1007.3 hPa | 0 mm | 1.34 m/s, 343° | 5 W/m² | - |
| 1778090812 | 9.44° C | 89% | 1007.3 hPa | 0 mm | 1.34 m/s, 36° | 11 W/m² | - |
| 1778090692 | 9.44° C | 89% | 1007.4 hPa | 0 mm | 0.45 m/s, 48° | 10 W/m² | - |
| 1778090513 | 9.44° C | 88% | 1007.3 hPa | 0 mm | 1.34 m/s, 341° | 15 W/m² | - |
| 1778089972 | 9.44° C | 88% | 1007.1 hPa | 0 mm | 0.89 m/s, 45° | 25 W/m² | - |
| 1778089012 | 10° C | 87% | 1006.9 hPa | 0 mm | 2.24 m/s, 316° | 37 W/m² | - |
| 1778088892 | 10° C | 88% | 1007 hPa | 0 mm | 0.89 m/s, 288° | 36 W/m² | - |
| 1778088412 | 10° C | 88% | 1007.2 hPa | 0 mm | 2.68 m/s, 334° | 48 W/m² | - |
* Rain latest hour (hover to see other rain measurements)
** Current wind speed in m/s (hover to see current wind gust speed)